Regional Weather Roundup
Issued by NWS

Home | Current Version | Previous Version | Graphics & Text | Print | Product List | Glossary On
Versions: 1 2 3 4 5 6 7 8 9 10 11 12 13 14 15 16 17 18 19 20 21 22 23 24 25 26 27 28 29 30 31 32 33 34 35 36 37 38 39 40 41 42 43 44 45 46 47 48 49 50
000
ASUS43 KOAX 050810
RWRNE

WEATHER ROUNDUP FOR NEBRASKA
NATIONAL WEATHER SERVICE OMAHA NE
200 AM CST THU MAR 05 2015

NOTES: SATELLITE DATA IS BEING USED TO AUGMENT CLOUD COVER ABOVE
       12000 FEET.
       "FAIR" INDICATES FEW OR NO CLOUDS BELOW 12,000 FEET WITH NO
       SIGNIFICANT WEATHER AND/OR OBSTRUCTIONS TO VISIBILITY.

  * THESE STATIONS DO NOT REPORT WEATHER SUCH AS RAIN...SNOW OR FOG.

NEZ001>004-019>022-054>056-050900-
NEBRASKA PANHANDLE

CITY           SKY/WX    TMP DP  RH WIND       PRES   REMARKS
SCOTTSBLUFF    CLEAR      6   0  76 E3        30.23S
ALLIANCE       CLEAR      1  -5  75 CALM      30.22F
CHADRON        MOCLDY    -4  -8  83 SW3       30.25F
KIMBALL        CLEAR     10   6  84 W9        30.18F WCI  -3
SIDNEY         CLEAR      9   3  77 W9        30.23F WCI  -4
$$

NEZ057>060-069>072-079>082-050900-
SOUTHWEST NEBRASKA

CITY           SKY/WX    TMP DP  RH WIND       PRES   REMARKS
NORTH PLATTE   CLEAR      4  -3  73 CALM      30.34S
IMPERIAL         N/A      9   2  73 N7        30.30S WCI  -2
LEXINGTON      CLEAR      5   0  78 CALM      30.38S
MCCOOK         CLEAR     13   2  61 E6        30.35S WCI   4
OGALLALA       CLEAR      3   0  85 CALM      30.29S
$$

NEZ005>010-023>029-035>040-094-050900-
NORTH CENTRAL NEBRASKA

CITY           SKY/WX    TMP DP  RH WIND       PRES   REMARKS
VALENTINE      CLEAR     -1  -6  79 SW6       30.33S WCI -13
AINSWORTH      CLEAR      2  -3  79 SW6       30.33S WCI  -9
BROKEN BOW     CLEAR      0  -6  76 CALM      30.36S
O`NEILL        CLEAR      1  -2  88 SW5       30.39S WCI  -9
ORD            CLEAR     -1  -8  72 SW5       30.40R WCI -11
THEDFORD       CLEAR      6   0  78 SW8       30.33S WCI  -7
$$

NEZ041-046>049-061>064-073>077-083>087-050900-
SOUTH CENTRAL NEBRASKA

CITY           SKY/WX    TMP DP  RH WIND       PRES   REMARKS
GRAND ISLAND   CLEAR      6  -2  69 CALM      30.45R
AURORA         CLEAR      4  -3  73 CALM      30.44R
HASTINGS       CLEAR      5  -3  69 CALM      30.42R
HEBRON         CLEAR      9   0  68 E3        30.46S
HOLDREGE       CLEAR      5  -1  73 E5        30.39R WCI  -4
KEARNEY *      CLEAR      9   0  66 CALM      30.41R
YORK           CLEAR      3  -2  78 CALM      30.45R
$$

NEZ011>018-030>034-042>045-050900-
NORTHEAST NEBRASKA

CITY           SKY/WX    TMP DP  RH WIND       PRES   REMARKS
NORFOLK        CLEAR      1  -6  72 SW3       30.43R
ALBION         MOCLDY     1  -5  76 CALM      30.42S
BLAIR          CLEAR      7  -3  63 N3        30.46R
COLUMBUS *     CLEAR      0 -15  50 CALM      30.47R
FREMONT        CLEAR      4  -3  72 CALM      30.48R
TEKAMAH        CLEAR      1  -6  72 W5        30.50R WCI  -9
WAYNE          CLEAR     -6 -12  75 CALM      30.46R
$$

NEZ050>053-065>068-078-088>093-050900-
SOUTHEAST NEBRASKA

CITY           SKY/WX    TMP DP  RH WIND       PRES   REMARKS
LINCOLN        CLEAR      5  -3  69 N3        30.50R
OMAHA EPPLEY   CLEAR      6  -3  66 NE6       30.50R WCI  -4
BEATRICE       CLEAR      7  -1  71 N5        30.47S WCI  -2
FALLS CITY     CLEAR      9  -3  58 NE3       30.49R
NEBRASKA CITY  CLEAR      6  -4  62 NE5       30.48S WCI  -3
PLATTSMOUTH    CLEAR      6  -4  64 NE5       30.48R WCI  -3
$$

NEZ044-045-051>053-067-050900-
OMAHA AREA

CITY           SKY/WX    TMP DP  RH WIND       PRES   REMARKS
OMAHA EPPLEY   CLEAR      6  -3  66 NE6       30.50R WCI  -4
BLAIR          CLEAR      7  -3  63 N3        30.46R
FREMONT        CLEAR      4  -3  72 CALM      30.48R
MILLARD        CLEAR      9  -2  60 CALM      30.50R
OFFUTT AFB     CLEAR      6  -3  67 NE3       30.49R
PLATTSMOUTH    CLEAR      6  -4  64 NE5       30.48R WCI  -3
WAHOO          FAIR       6  -4  63 N3        30.49R
$$


USA.gov is the U.S. government's official web portal to all federal, state and local government web resources and services.